| time (UTC) | temp F | wind direction | speed MPH | gust MPH | rain 1hr in | rain 24hr in | rain mn in | humidity % | barometer mb |
| 20260505200926 | 57 | 335 | 3.0 | 6.0 | 0.12 | 0.15 | 0.15 | 92 | 1007.0 |
| 20260505195926 | 57 | 325 | 2.0 | 6.0 | 0.09 | 0.11 | 0.11 | 91 | 1007.0 |
| 20260505194924 | 57 | 321 | 2.0 | 6.0 | 0.09 | 0.10 | 0.10 | 90 | 1007.0 |
| 20260505193923 | 57 | 335 | 2.0 | 4.0 | 0.08 | 0.08 | 0.08 | 91 | 1007.0 |
| 20260505192921 | 57 | 305 | 2.0 | 4.0 | 0.06 | 0.06 | 0.06 | 90 | 1007.4 |
| 20260505191920 | 57 | 316 | 2.0 | 8.0 | 0.04 | 0.04 | 0.04 | 89 | 1007.4 |
| 20260505190919 | 57 | 322 | 4.0 | 8.0 | 0.03 | 0.03 | 0.03 | 87 | 1007.7 |
| 20260505185919 | 58 | 324 | 3.0 | 8.0 | 0.02 | 0.02 | 0.02 | 86 | 1007.4 |
| 20260505184918 | 58 | 326 | 4.0 | 9.0 | 0.01 | 0.01 | 0.01 | 85 | 1007.4 |
| 20260505183918 | 59 | 334 | 4.0 | 12.0 | 0.00 | 0.00 | 0.00 | 84 | 1007.4 |
| 20260505182917 | 60 | 322 | 5.0 | 12.0 | 0.00 | 0.00 | 0.00 | 82 | 1007.5 |
| 20260505181845 | 61 | 338 | 7.0 | 12.0 | 0.00 | 0.00 | 0.00 | 78 | 1007.5 |
| 20260505180844 | 62 | 331 | 7.0 | 17.0 | 0.00 | 0.00 | 0.00 | 75 | 1007.2 |
| 20260505175843 | 63 | 322 | 10.0 | 17.0 | 0.00 | 0.00 | 0.00 | 72 | 1007.5 |
| 20260505174843 | 63 | 316 | 9.0 | 19.0 | 0.00 | 0.00 | 0.00 | 72 | 1007.2 |
| 20260505173708 | 63 | 315 | 10.0 | 21.0 | 0.00 | 0.00 | 0.00 | 70 | 1007.2 |
| 20260505172707 | 64 | 308 | 12.0 | 21.0 | 0.00 | 0.00 | 0.00 | 68 | 1007.2 |
| 20260505171707 | 64 | 321 | 11.0 | 19.0 | 0.00 | 0.00 | 0.00 | 69 | 1007.2 |
| 20260505170706 | 63 | 321 | 9.0 | 19.0 | 0.00 | 0.00 | 0.00 | 70 | 1007.2 |
| 20260505165705 | 63 | 325 | 13.0 | 20.0 | 0.00 | 0.00 | 0.00 | 69 | 1007.1 |
| 20260505164704 | 64 | 323 | 9.0 | 24.0 | 0.00 | 0.00 | 0.00 | 69 | 1007.2 |
| 20260505163704 | 64 | 326 | 11.0 | 24.0 | 0.00 | 0.00 | 0.00 | 68 | 1007.2 |
| 20260505162703 | 64 | 329 | 13.0 | 23.0 | 0.00 | 0.00 | 0.00 | 67 | 1007.2 |
| 20260505161702 | 64 | 319 | 12.0 | 22.0 | 0.00 | 0.00 | 0.00 | 66 | 1007.1 |
| 20260505160702 | 64 | 318 | 11.0 | 22.0 | 0.00 | 0.00 | 0.00 | 66 | 1007.2 |
| 20260505152627 | 66 | 319 | 14.0 | 21.0 | 0.00 | 0.00 | 0.00 | 64 | 1006.5 |
| 20260505151627 | 66 | 301 | 12.0 | 22.0 | 0.00 | 0.00 | 0.00 | 61 | 1005.8 |
| 20260505150626 | 66 | 284 | 13.0 | 23.0 | 0.00 | 0.00 | 0.00 | 63 | 1005.9 |
| 20260505140519 | 64 | 305 | 10.0 | 22.0 | 0.00 | 0.00 | 0.00 | 67 | 1005.8 |
| 20260505124441 | 61 | 289 | 7.0 | 13.0 | 0.00 | 0.00 | 0.00 | 72 | 1005.8 |
| 20260505123440 | 61 | 280 | 9.0 | 13.0 | 0.00 | 0.00 | 0.00 | 72 | 1005.5 |
| 20260505122407 | 61 | 276 | 10.0 | 16.0 | 0.00 | 0.00 | 0.00 | 72 | 1005.5 |
| 20260505121406 | 61 | 276 | 9.0 | 16.0 | 0.00 | 0.00 | 0.00 | 71 | 1005.5 |
| 20260505120334 | 61 | 288 | 9.0 | 17.0 | 0.00 | 0.00 | 0.00 | 69 | 1005.2 |
| 20260505115332 | 61 | 288 | 9.0 | 17.0 | 0.00 | 0.00 | 0.00 | 68 | 1004.8 |
| 20260505114332 | 61 | 295 | 10.0 | 16.0 | 0.00 | 0.00 | 0.00 | 68 | 1004.5 |
| 20260505113300 | 60 | 291 | 7.0 | 14.0 | 0.00 | 0.00 | 0.00 | 70 | 1004.2 |
| 20260505112259 | 60 | 284 | 7.0 | 16.0 | 0.00 | 0.00 | 0.00 | 71 | 1003.8 |
| 20260505111258 | 60 | 267 | 4.0 | 16.0 | 0.00 | 0.00 | 0.00 | 71 | 1003.5 |
| 20260505110257 | 60 | 260 | 5.0 | 17.0 | 0.00 | 0.00 | 0.00 | 71 | 1003.5 |
| 20260505102121 | 61 | 289 | 11.0 | 17.0 | 0.00 | 0.00 | 0.00 | 67 | 1004.2 |
| 20260505101120 | 62 | 288 | 8.0 | 18.0 | 0.00 | 0.00 | 0.00 | 68 | 1004.2 |
| 20260505100120 | 62 | 296 | 9.0 | 20.0 | 0.00 | 0.00 | 0.00 | 67 | 1004.2 |
| 20260505095119 | 63 | 291 | 12.0 | 20.0 | 0.00 | 0.00 | 0.00 | 67 | 1004.2 |
| 20260505094118 | 63 | 275 | 10.0 | 17.0 | 0.00 | 0.00 | 0.00 | 65 | 1003.6 |
| 20260505093047 | 63 | 267 | 8.0 | 20.0 | 0.00 | 0.00 | 0.00 | 64 | 1003.2 |
| 20260505092015 | 64 | 266 | 10.0 | 20.0 | 0.00 | 0.00 | 0.00 | 63 | 1003.2 |
| 20260505090943 | 64 | 282 | 10.0 | 18.0 | 0.00 | 0.00 | 0.00 | 63 | 1003.4 |
| 20260505085942 | 64 | 283 | 12.0 | 22.0 | 0.00 | 0.00 | 0.00 | 63 | 1003.3 |
| 20260505084940 | 64 | 274 | 11.0 | 22.0 | 0.00 | 0.00 | 0.00 | 63 | 1003.0 |
| 20260505083939 | 65 | 263 | 10.0 | 25.0 | 0.00 | 0.00 | 0.00 | 61 | 1003.0 |
| 20260505082938 | 65 | 277 | 15.0 | 25.0 | 0.00 | 0.00 | 0.00 | 60 | 1003.0 |
| 20260505081937 | 66 | 277 | 12.0 | 24.0 | 0.00 | 0.00 | 0.00 | 58 | 1003.0 |
| 20260505080936 | 67 | 270 | 14.0 | 25.0 | 0.00 | 0.00 | 0.00 | 57 | 1003.1 |
| 20260505075936 | 67 | 292 | 16.0 | 27.0 | 0.00 | 0.00 | 0.00 | 56 | 1002.7 |
| 20260505074935 | 67 | 293 | 14.0 | 28.0 | 0.00 | 0.00 | 0.00 | 55 | 1002.7 |
| 20260505073933 | 67 | 277 | 15.0 | 25.0 | 0.00 | 0.00 | 0.00 | 56 | 1002.7 |
| 20260505072932 | 68 | 279 | 14.0 | 23.0 | 0.00 | 0.00 | 0.00 | 55 | 1002.7 |
| 20260505071930 | 68 | 265 | 14.0 | 24.0 | 0.00 | 0.00 | 0.00 | 54 | 1002.7 |
| 20260505070930 | 68 | 266 | 15.0 | 24.0 | 0.00 | 0.00 | 0.00 | 54 | 1002.7 |
| 20260505065929 | 68 | 278 | 11.0 | 22.0 | 0.00 | 0.00 | 0.00 | 54 | 1002.7 |
| 20260505064928 | 68 | 283 | 10.0 | 21.0 | 0.00 | 0.00 | 0.00 | 55 | 1002.7 |
| 20260505063927 | 68 | 276 | 11.0 | 21.0 | 0.00 | 0.00 | 0.00 | 55 | 1002.7 |
| 20260505062927 | 68 | 274 | 11.0 | 19.0 | 0.00 | 0.00 | 0.00 | 55 | 1003.0 |
| 20260505061925 | 68 | 270 | 11.0 | 19.0 | 0.00 | 0.00 | 0.00 | 56 | 1002.7 |
| 20260505060925 | 68 | 269 | 10.0 | 18.0 | 0.00 | 0.00 | 0.00 | 56 | 1002.7 |
| 20260505055924 | 67 | 269 | 9.0 | 15.0 | 0.00 | 0.00 | 0.00 | 59 | 1002.7 |
| 20260505054923 | 67 | 257 | 8.0 | 18.0 | 0.00 | 0.00 | 0.00 | 59 | 1003.0 |
| 20260505053922 | 67 | 256 | 9.0 | 18.0 | 0.00 | 0.00 | 0.00 | 60 | 1003.0 |
| 20260505052920 | 66 | 258 | 8.0 | 17.0 | 0.00 | 0.00 | 0.00 | 60 | 1003.0 |
| 20260505051920 | 66 | 256 | 8.0 | 19.0 | 0.00 | 0.00 | 0.00 | 61 | 1003.3 |
| 20260505050919 | 66 | 256 | 10.0 | 19.0 | 0.00 | 0.00 | 0.00 | 61 | 1003.3 |
| 20260505040844 | 65 | 245 | 5.0 | 15.0 | 0.00 | 0.00 | 0.00 | 65 | 1003.6 |
| 20260505035843 | 65 | 241 | 7.0 | 15.0 | 0.00 | 0.00 | 0.00 | 64 | 1003.5 |
| 20260505034841 | 65 | 246 | 5.0 | 13.0 | 0.00 | 0.00 | 0.00 | 65 | 1003.5 |
| 20260505033840 | 65 | 248 | 6.0 | 14.0 | 0.00 | 0.00 | 0.00 | 64 | 1003.8 |
| 20260505032839 | 64 | 241 | 6.0 | 13.0 | 0.00 | 0.00 | 0.00 | 65 | 1003.8 |
| 20260505031838 | 64 | 245 | 5.0 | 10.0 | 0.00 | 0.00 | 0.00 | 65 | 1003.8 |
| 20260505030838 | 65 | 245 | 5.0 | 10.0 | 0.00 | 0.00 | 0.00 | 64 | 1004.1 |
| 20260505025837 | 65 | 239 | 5.0 | 10.0 | 0.00 | 0.00 | 0.00 | 63 | 1003.8 |
| 20260505024805 | 65 | 238 | 5.0 | 11.0 | 0.00 | 0.00 | 0.00 | 63 | 1004.1 |
| 20260505023803 | 65 | 238 | 5.0 | 11.0 | 0.00 | 0.00 | 0.00 | 62 | 1004.1 |
| 20260505022802 | 65 | 246 | 5.0 | 10.0 | 0.00 | 0.00 | 0.00 | 61 | 1004.1 |
| 20260505021802 | 65 | 240 | 5.0 | 12.0 | 0.00 | 0.00 | 0.00 | 60 | 1004.1 |
| 20260505020801 | 65 | 230 | 4.0 | 10.0 | 0.00 | 0.00 | 0.00 | 60 | 1003.7 |
| 20260505015800 | 66 | 244 | 5.0 | 14.0 | 0.00 | 0.00 | 0.00 | 59 | 1003.7 |
| 20260505014759 | 66 | 242 | 4.0 | 14.0 | 0.00 | 0.00 | 0.00 | 58 | 1003.7 |
| 20260505013758 | 67 | 252 | 6.0 | 17.0 | 0.00 | 0.00 | 0.00 | 57 | 1004.0 |
| 20260505012758 | 67 | 259 | 7.0 | 21.0 | 0.00 | 0.00 | 0.00 | 56 | 1003.7 |
| 20260505011757 | 67 | 261 | 10.0 | 17.0 | 0.00 | 0.00 | 0.00 | 55 | 1003.7 |
| 20260505010756 | 68 | 258 | 9.0 | 16.0 | 0.00 | 0.00 | 0.00 | 54 | 1003.7 |
| 20260505005755 | 68 | 254 | 10.0 | 16.0 | 0.00 | 0.00 | 0.00 | 53 | 1003.7 |
| 20260505004755 | 69 | 262 | 10.0 | 19.0 | 0.00 | 0.00 | 0.00 | 52 | 1003.7 |
| 20260505003754 | 68 | 255 | 12.0 | 19.0 | 0.00 | 0.00 | 0.00 | 52 | 1003.3 |
| 20260505002753 | 69 | 265 | 7.0 | 11.0 | 0.00 | 0.00 | 0.00 | 53 | 1003.6 |
| 20260505001752 | 69 | 261 | 5.0 | 13.0 | 0.00 | 0.00 | 0.00 | 52 | 1003.3 |
| 20260505000751 | 69 | 269 | 7.0 | 16.0 | 0.00 | 0.00 | 0.00 | 50 | 1002.9 |
| 20260504235751 | 70 | 285 | 8.0 | 20.0 | 0.00 | 0.00 | 0.00 | 49 | 1003.0 |
| 20260504234750 | 70 | 280 | 8.0 | 18.0 | 0.00 | 0.00 | 0.00 | 50 | 1002.9 |
| 20260504233718 | 71 | 278 | 8.0 | 20.0 | 0.00 | 0.00 | 0.00 | 50 | 1002.6 |
| 20260504232718 | 72 | 273 | 13.0 | 21.0 | 0.00 | 0.00 | 0.00 | 48 | 1002.3 |
| 20260504231717 | 72 | 273 | 12.0 | 22.0 | 0.00 | 0.00 | 0.00 | 51 | 1002.6 |
| 20260504230644 | 72 | 260 | 10.0 | 22.0 | 0.00 | 0.00 | 0.00 | 50 | 1002.6 |
| 20260504225541 | 72 | 259 | 10.0 | 20.0 | 0.00 | 0.00 | 0.00 | 50 | 1002.6 |
| 20260504224540 | 72 | 259 | 12.0 | 23.0 | 0.00 | 0.00 | 0.00 | 51 | 1002.6 |
| 20260504223539 | 72 | 270 | 13.0 | 23.0 | 0.00 | 0.00 | 0.00 | 52 | 1003.0 |
| 20260504222537 | 72 | 259 | 14.0 | 21.0 | 0.00 | 0.00 | 0.00 | 52 | 1003.0 |
| 20260504221536 | 72 | 269 | 13.0 | 22.0 | 0.00 | 0.00 | 0.00 | 54 | 1003.0 |
| 20260504220536 | 71 | 260 | 11.0 | 19.0 | 0.00 | 0.00 | 0.00 | 55 | 1003.3 |
| 20260504215504 | 70 | 261 | 6.0 | 16.0 | 0.00 | 0.00 | 0.00 | 59 | 1003.2 |
| 20260504214401 | 70 | 246 | 9.0 | 16.0 | 0.00 | 0.00 | 0.00 | 59 | 1003.3 |
| 20260504213400 | 70 | 243 | 5.0 | 27.0 | 0.00 | 0.00 | 0.00 | 61 | 1003.3 |
| 20260504212400 | 70 | 250 | 11.0 | 27.0 | 0.00 | 0.00 | 0.00 | 58 | 1003.3 |
| 20260504211359 | 74 | 257 | 14.0 | 27.0 | 0.00 | 0.00 | 0.00 | 51 | 1003.7 |
| 20260504210358 | 74 | 256 | 11.0 | 23.0 | 0.00 | 0.00 | 0.00 | 48 | 1003.4 |
| 20260504205357 | 73 | 261 | 12.0 | 24.0 | 0.00 | 0.00 | 0.00 | 51 | 1003.4 |
| 20260504204357 | 73 | 275 | 17.0 | 24.0 | 0.00 | 0.00 | 0.00 | 49 | 1003.7 |
| 20260504203324 | 73 | 268 | 15.0 | 26.0 | 0.00 | 0.00 | 0.00 | 51 | 1003.6 |
| 20260504202252 | 72 | 268 | 11.0 | 22.0 | 0.00 | 0.00 | 0.00 | 51 | 1004.0 |
| 20260504201251 | 74 | 288 | 12.0 | 20.0 | 0.00 | 0.00 | 0.00 | 49 | 1004.0 |